FW7772 Weather Reports


Display with metric or nautical units.
time (UTC)temp
F
wind
direction
speed
MPH
gust
MPH
rain 1hr
in
rain 24hr
in
rain mn
in
humidity
%
barometer
mb
20260830235603 56 316 0.0 0.0 0.02 0.08 0.02 93 1002.9
20260830234602 56 316 0.0 0.0 0.01 0.06 0.01 93 1002.8
20260830233603 56 316 0.0 0.0 0.01 0.06 0.01 92 1002.8
20260830232603 56 316 0.0 0.0 0.00 0.06 0.00 92 1002.7
20260830231604 56 316 0.0 0.0 0.00 0.06 0.00 92 1002.7
20260830230604 56 316 0.0 0.0 0.00 0.06 0.00 92 1002.7
20260830225603 56 342 0.0 0.0 0.00 0.06 0.00 92 1002.7
20260830224605 56 180 0.0 0.0 0.00 0.06 0.00 92 1002.7
20260830223604 56 180 0.0 0.0 0.00 0.06 0.00 91 1002.7
20260830222603 56 180 0.0 0.0 0.00 0.06 0.00 91 1002.8
20260830221603 56 180 0.0 0.0 0.00 0.06 0.00 91 1002.7
20260830220603 56 180 0.0 0.0 0.00 0.06 0.00 90 1002.5
20260830215603 56 180 0.0 0.0 0.00 0.06 0.06 90 1002.6
20260830214602 57 180 0.0 0.0 0.00 0.06 0.06 90 1002.6
20260830214516 57 180 0.0 0.0 0.00 0.06 0.06 90 1002.6
20260830212602 57 180 0.0 0.0 0.00 0.06 0.06 90 1002.6
20260830211606 57 180 0.0 0.0 0.00 0.06 0.06 90 1002.5
20260830210603 58 180 0.0 0.0 0.00 0.06 0.06 90 1002.5
20260830205604 58 180 0.0 0.0 0.00 0.06 0.06 90 1002.6
20260830204603 58 180 0.0 0.0 0.00 0.06 0.06 90 1002.6
20260830203603 58 180 0.0 0.0 0.00 0.06 0.06 89 1002.5
20260830202603 58 180 0.0 0.0 0.00 0.06 0.06 89 1002.5
20260830201602 58 180 0.0 0.0 0.00 0.06 0.06 89 1002.5
20260830200603 59 180 0.0 0.0 0.00 0.06 0.06 89 1002.5
20260830195603 59 180 0.0 0.0 0.00 0.06 0.06 89 1002.6
20260830194606 59 180 0.0 0.0 0.00 0.06 0.06 89 1002.6
20260830193603 59 180 0.0 0.0 0.00 0.06 0.06 88 1002.6
20260830192602 60 180 0.0 0.0 0.00 0.06 0.06 88 1002.6
20260830191603 60 180 0.0 0.0 0.00 0.06 0.06 88 1002.6
20260830190602 60 180 0.0 0.0 0.00 0.06 0.06 87 1002.5
20260830185603 60 180 0.0 0.0 0.00 0.06 0.06 87 1002.6
20260830185046 60 180 0.0 1.0 0.00 0.06 0.06 86 1002.5
20260830183602 61 180 1.0 3.0 0.00 0.06 0.06 85 1002.5
20260830182602 61 156 0.0 2.0 0.00 0.06 0.06 85 1002.5
20260830181604 61 156 1.0 4.0 0.00 0.06 0.06 85 1002.4
20260830181525 61 155 1.0 3.0 0.00 0.06 0.06 85 1002.3
20260830175603 62 199 1.0 4.0 0.00 0.06 0.06 85 1002.3
20260830174603 62 132 0.0 0.0 0.00 0.06 0.06 85 1002.2
20260830173602 62 132 0.0 0.0 0.00 0.06 0.06 86 1002.2
20260830172603 62 132 0.0 0.0 0.00 0.06 0.06 86 1002.2
20260830172510 62 132 0.0 0.0 0.00 0.06 0.06 87 1002.1
20260830170602 62 132 0.0 0.0 0.00 0.06 0.06 87 1002.1
20260830165603 62 132 0.0 0.0 0.00 0.06 0.06 87 1002.0
20260830164603 62 132 0.0 0.0 0.00 0.06 0.06 86 1002.0
20260830163604 62 132 0.0 0.0 0.00 0.06 0.06 85 1002.0
20260830162602 62 132 1.0 3.0 0.00 0.06 0.06 83 1002.0
20260830161613 62 141 1.0 3.0 0.00 0.06 0.06 83 1001.9
20260830161025 62 193 2.0 4.0 0.00 0.06 0.06 83 1002.1
20260830155542 62 181 2.0 5.0 0.00 0.06 0.06 82 1002.1
20260830154539 62 185 2.0 6.0 0.00 0.06 0.06 82 1002.0
20260830153544 62 100 3.0 10.0 0.00 0.06 0.06 81 1001.9
20260830152538 63 138 4.0 10.0 0.00 0.06 0.06 79 1002.0
20260830151547 64 79 4.0 10.0 0.00 0.06 0.06 76 1001.9
20260830150536 65 164 3.0 10.0 0.00 0.06 0.06 76 1001.8
20260830145539 65 164 4.0 13.0 0.00 0.06 0.06 74 1001.8
20260830144535 66 179 4.0 10.0 0.00 0.06 0.06 73 1001.8
20260830143535 66 234 6.0 14.0 0.00 0.06 0.06 72 1001.9
20260830143021 66 174 5.0 12.0 0.00 0.06 0.06 74 1001.9
20260830141535 66 265 5.0 14.0 0.00 0.06 0.06 75 1001.9
20260830140535 66 192 6.0 14.0 0.00 0.06 0.06 76 1001.8
20260830140450 66 225 4.0 11.0 0.00 0.06 0.06 75 1001.7
20260830134534 67 155 4.0 9.0 0.01 0.06 0.06 76 1001.8
20260830133534 65 210 4.0 14.0 0.02 0.06 0.06 79 1001.9
20260830132534 66 224 2.0 9.0 0.02 0.06 0.06 81 1001.8
20260830131535 63 265 3.0 11.0 0.02 0.06 0.06 87 1001.9
20260830130534 63 239 4.0 12.0 0.02 0.06 0.06 88 1001.8
20260830130011 64 253 2.0 4.0 0.02 0.06 0.06 91 1001.7
20260830124535 62 183 5.0 13.0 0.01 0.06 0.06 85 1001.7
20260830123532 64 205 3.0 10.0 0.00 0.05 0.05 79 1001.5
20260830122534 64 190 3.0 7.0 0.00 0.05 0.05 80 1001.7
20260830121533 64 230 4.0 12.0 0.00 0.05 0.05 81 1001.5
20260830120533 64 239 3.0 9.0 0.00 0.05 0.05 82 1001.7
20260830115533 63 99 3.0 8.0 0.00 0.05 0.05 83 1001.8
20260830114533 63 119 4.0 10.0 0.00 0.05 0.05 86 1001.7
20260830113531 63 187 2.0 9.0 0.00 0.05 0.05 86 1001.8
20260830112532 62 178 2.0 7.0 0.00 0.05 0.05 90 1001.8
20260830111531 61 116 2.0 7.0 0.00 0.05 0.05 90 1002.0
20260830110531 60 146 3.0 7.0 0.00 0.05 0.05 91 1001.9
20260830105531 60 174 3.0 7.0 0.00 0.05 0.05 90 1001.9
20260830104530 61 179 2.0 7.0 0.00 0.05 0.05 90 1001.9
20260830103530 61 207 3.0 7.0 0.00 0.05 0.05 88 1001.8
20260830102530 61 125 3.0 7.0 0.00 0.05 0.05 90 1001.9
20260830101531 60 211 3.0 9.0 0.00 0.05 0.05 90 1001.8
20260830101011 60 133 3.0 7.0 0.00 0.05 0.05 91 1001.9
20260830095531 60 195 2.0 4.0 0.00 0.05 0.05 93 1001.8
20260830094532 60 173 2.0 5.0 0.00 0.05 0.05 93 1001.8
20260830093531 60 159 2.0 5.0 0.00 0.05 0.05 93 1001.9
20260830092530 60 148 1.0 4.0 0.00 0.05 0.05 94 1001.7
20260830091530 60 121 2.0 5.0 0.00 0.05 0.05 94 1001.8
20260830090530 59 137 2.0 5.0 0.00 0.05 0.05 94 1001.7
20260830085530 58 137 2.0 4.0 0.00 0.05 0.05 94 1001.8
20260830084530 58 185 3.0 5.0 0.00 0.05 0.05 94 1001.7
20260830083531 58 145 2.0 6.0 0.00 0.05 0.05 94 1001.8
20260830082531 58 203 2.0 6.0 0.00 0.05 0.05 95 1001.8
20260830081530 58 124 4.0 8.0 0.00 0.05 0.05 95 1001.7
20260830080532 58 149 3.0 7.0 0.01 0.05 0.05 95 1001.5
20260830075531 58 147 3.0 6.0 0.01 0.05 0.05 95 1001.5
20260830074531 58 128 3.0 6.0 0.01 0.05 0.05 94 1001.5
20260830073540 58 147 3.0 5.0 0.01 0.05 0.05 94 1001.5
20260830072532 58 145 3.0 6.0 0.02 0.05 0.05 94 1001.5
20260830071530 58 157 3.0 6.0 0.02 0.05 0.05 94 1001.5
20260830070532 58 155 1.0 4.0 0.01 0.04 0.04 94 1001.5
20260830065526 58 129 2.0 4.0 0.01 0.05 0.04 94 1001.5
20260830064522 58 141 2.0 4.0 0.01 0.05 0.04 94 1001.3
20260830064003 58 154 1.0 3.0 0.01 0.05 0.04 94 1001.3
20260830062518 57 154 1.0 2.0 0.00 0.05 0.03 94 1001.3
20260830062007 57 154 1.0 4.0 0.00 0.05 0.03 94 1001.3
20260830060518 57 129 2.0 4.0 0.00 0.05 0.03 94 1001.3
20260830055518 57 153 2.0 4.0 0.00 0.05 0.03 94 1001.3
20260830054518 56 147 2.0 3.0 0.00 0.05 0.03 94 1001.3
20260830053518 56 156 0.0 4.0 0.00 0.05 0.03 94 1001.3
20260830052518 56 147 0.0 0.0 0.00 0.05 0.03 93 1001.3
20260830051518 56 147 0.0 0.0 0.00 0.05 0.03 93 1001.3
20260830050520 56 147 0.0 0.0 0.00 0.06 0.03 93 1001.2
20260830045517 56 147 0.0 0.0 0.00 0.07 0.03 93 1001.3
20260830044518 56 147 0.0 0.0 0.00 0.09 0.03 93 1001.2
20260830043518 56 147 0.0 0.0 0.00 0.13 0.03 93 1001.3
20260830042518 56 147 0.0 0.0 0.00 0.17 0.03 93 1001.2
20260830041518 56 147 0.0 0.0 0.00 0.26 0.03 93 1001.2
20260830040957 56 147 0.0 0.0 0.00 0.29 0.03 93 1001.2
20260830035512 56 147 0.0 2.0 0.00 0.33 0.03 93 1001.2
20260830034514 56 147 2.0 6.0 0.00 0.39 0.03 93 1001.2
20260830033949 56 128 3.0 5.0 0.00 0.39 0.03 93 1001.2
20260830032512 56 150 3.0 4.0 0.00 0.39 0.03 93 1001.1
20260830031511 57 148 2.0 4.0 0.00 0.39 0.03 93 1001.2
20260830030956 57 125 3.0 5.0 0.00 0.40 0.03 93 1001.1
20260830025952 57 119 2.0 2.0 0.00 0.43 0.03 93 1001.1
20260830024511 57 119 2.0 3.0 0.00 0.44 0.03 93 1001.1
20260830023511 57 145 2.0 5.0 0.00 0.44 0.03 93 1001.1
20260830022509 57 152 1.0 4.0 0.00 0.44 0.03 93 1001.0
20260830022424 57 146 2.0 3.0 0.00 0.46 0.03 93 1001.0
20260830020509 57 147 1.0 3.0 0.00 0.48 0.03 93 1001.1
20260830015510 57 147 1.0 3.0 0.00 0.49 0.03 93 1001.1
20260830014950 57 147 1.0 2.0 0.00 0.50 0.03 93 1001.2
20260830013510 57 147 1.0 2.0 0.00 0.50 0.03 93 1001.1
20260830012509 57 147 1.0 3.0 0.01 0.50 0.03 94 1001.2
20260830011955 57 127 0.0 2.0 0.01 0.51 0.03 94 1001.2
20260830010507 57 127 0.0 2.0 0.02 0.52 0.03 94 1001.2
20260830005944 57 127 1.0 3.0 0.02 0.54 0.03 93 1001.2
20260830004508 57 141 0.0 2.0 0.02 0.54 0.03 93 1001.3
20260830003507 57 141 0.0 2.0 0.03 0.57 0.03 93 1001.2
20260830002506 57 112 1.0 4.0 0.02 0.57 0.02 93 1001.2
20260830001508 56 136 1.0 5.0 0.02 0.57 0.02 93 1001.3
20260830000505 56 134 1.0 3.0 0.02 0.57 0.02 93 1001.3